Regional Weather Roundup
Issued by NWS

Home | Current Version | Previous Version | Text Only | Print | Product List | Glossary Off
Versions: 1 2 3 4 5 6 7 8 9 10 11 12 13 14 15 16 17 18 19 20 21 22 23 24 25 26 27 28 29 30 31 32 33 34 35 36 37 38 39 40 41 42 43 44 45 46 47 48 49 50

000
ASUS43 KFSD 250310
RWRSD

WEATHER ROUNDUP FOR SOUTH DAKOTA
NATIONAL WEATHER SERVICE SIOUX FALLS SD
1000 PM CDT SAT JUN 24 2017

NOTE: "FAIR" INDICATES FEW OR NO CLOUDS BELOW 12,000 FEET WITH NO
SIGNIFICANT WEATHER AND/OR OBSTRUCTIONS TO VISIBILITY.


SDZ001>005-009-010-012>017-250400-
NORTHWEST AND NORTH CENTRAL SOUTH DAKOTA

CITY           SKY/WX    TMP DP  RH WIND       PRES   REMARKS
BUFFALO          N/A     61  30  31 NE12      30.25R
FAITH            N/A     59  34  39 NE10      30.29R
MOBRIDGE       CLEAR     57  39  51 N8        30.24R
$$

SDZ012>016-024>037-041>051-057-063-072>074-250400-
SOUTHWEST AND SOUTH CENTRAL SOUTH DAKOTA

CITY           SKY/WX    TMP DP  RH WIND       PRES   REMARKS
RAPID CTY ARPT CLEAR     58  30  34 N9        30.29R
PIERRE         CLEAR     55  41  59 N9        30.24R
CUSTER         CLOUDY    55  27  34 N6        30.37R
ELLSWORTH AFB  CLEAR     64  30  28 NE8       30.29R
PHILIP         CLEAR     59  33  37 N10       30.26R
PINE RIDGE     CLEAR     61  33  35 NE6       30.28R
SPEARFISH      FAIR      59  32  36 CALM      30.33R
WINNER         FAIR      60  37  42 NE9       30.25R
$$

SDZ004>011-016>023-039-040-250400-
NORTHEAST SOUTH DAKOTA

CITY           SKY/WX    TMP DP  RH WIND       PRES   REMARKS
ABERDEEN       CLOUDY    58  44  60 NW14      30.22R
WATERTOWN      CLOUDY    55  45  68 NW17G23   30.19R
BROOKINGS      CLOUDY    57  44  62 NW12      30.19R
SISSETON         N/A     58  46  64 NW18G26   30.16R
$$

SDZ017-020-022-023-036>040-048>070-250400-
SOUTHEAST SOUTH DAKOTA

CITY           SKY/WX    TMP DP  RH WIND       PRES   REMARKS
SIOUX FALLS    PTCLDY    58  42  55 NW10      30.18R
HURON          CLEAR     56  44  64 N9        30.23R
CHAMBERLAIN    CLEAR     63  39  42 N8        30.24R
MITCHELL       CLEAR     60  42  51 N12       30.23R
YANKTON        CLEAR     59  41  51 N8        30.19R
$$

ABBREVIATIONS USED IN REMARKS
   TC - TEMPERATURE IN CELSIUS
  WCI - WIND CHILL INDEX
   HX - HEAT INDEX
  VSB - VISIBILITY





USA.gov is the U.S. government's official web portal to all federal, state and local government web resources and services.